Tracking 17560 objects as of 12-February-2016
HD Live streaming from Space Station
objects crossing your sky now

TANSUO 2

Track TANSUO 2 now!
10-day predictions
TANSUO 2 is classified as:


NORAD ID: 28479
Int'l Code: 2004-046A
Perigee: 693.4 km
Apogee: 707.2 km
Inclination: 98.2 °
Period: 98.6 minutes
Semi major axis: 7071 km
RCS: 1.44 m2 (large)
Launch date: November 18, 2004
Source: People's Republic of China (PRC)
Launch site: Xichang Space Center, China (XSC)
Your satellite tracking list
Your tracking list is empty





NASA's NSSDC Master Catalog

Two Line Element Set (TLE):
1 28479U 04046A   16043.40696160  .00000505  00000-0  11397-3 0  9994
2 28479  98.2328  58.0690 0009743 214.1043 145.9540 14.6462798597893
Source of the keplerian elements: AFSPC

N2YO: 602